Flight Track Log - Related Links

Times and Time Zones

All times are in EDT time to prevent confusion due to time zone crossing. See the UPS1121 flight status page for this flight to view local times or setup timezone preferences in your user account.

Time Position Orientation Groundspeed Altitude Reporting Facility
EDT Latitude Longitude Course Direction KTS MPH feet Rate Location/Type
Thu 08:38:59 PM 42.7339 -73.8081 143° Southeast 154 177 1,400  Level Boston Center
Thu 08:40:19 PM 42.6806 -73.7533 143° Southeast 228 262 3,700 2,571 Climbing Boston Center
Thu 08:41:19 PM 42.6250 -73.6675 131° Southeast 268 308 7,400 3,000 Climbing Boston Center
Thu 08:42:19 PM 42.5800 -73.5961 131° Southeast 289 333 9,700 1,514 Climbing Boston Center
Thu 08:43:10 PM 42.5183 -73.4992 131° Southeast 314 361 10,200 650 Climbing Boston Center
Thu 08:44:19 PM 42.4567 -73.3997 130° Southeast 330 380 11,000 372 Climbing Boston Center
Thu 08:45:19 PM 42.3806 -73.2917 134° Southeast 349 402 11,000  Level Boston Center
Thu 08:46:19 PM 42.3144 -73.1925 132° Southeast 354 407 11,000  Level Boston Center
Thu 08:46:36 PM 42.3022 -73.1644 120° Southeast 351 404 11,000 -800 Level Boston Center
Thu 08:47:19 PM 42.2861 -73.0772 104° East 326 375 10,200 -1,340 Descending Boston Center
Thu 08:48:19 PM 42.2617 -72.9675 107° East 308 354 8,700 -1,650 Descending Boston Center
Thu 08:49:19 PM 42.2392 -72.8550 105° East 303 349 6,900 -1,600 Descending Boston Center
Thu 08:50:19 PM 42.2167 -72.7483 106° East 303 349 5,500 -1,150 Descending Boston Center
Thu 08:51:19 PM 42.1981 -72.6586 106° East 277 319 4,600 -750 Descending Boston Center
Thu 08:52:19 PM 42.1564 -72.5942 131° Southeast 238 274 4,000 -450 Descending Boston Center
Thu 08:53:19 PM 42.1169 -72.5353 132° Southeast 221 254 3,700 -560 Descending Boston Center
Thu 08:53:34 PM 42.1022 -72.5214 145° Southeast 207 238 3,300 -800 Descending Boston Center
Thu 08:54:19 PM 42.0669 -72.5294 190° South 190 219 2,900 -590 Descending Boston Center
Thu 08:54:35 PM 42.0544 -72.5350 198° South 187 215 2,700 -623 Descending Boston Center
Thu 08:55:36 PM 42.0253 -72.5714 223° Southwest 141 162 2,100 -519 Descending Boston Center
Thu 08:56:19 PM 42.0086 -72.5967 228° Southwest 145 167 1,800 -484 Descending Boston Center
Thu 08:56:38 PM 42.0000 -72.6078 224° Southwest 136 157 1,600 -600 Descending Boston Center
Thu 08:57:19 PM 41.9833 -72.6328 228° Southwest 139 160 1,200 -632 Descending Boston Center
Thu 08:58:32 PM 41.9522 -72.6661 219° Southwest 118 136 400 -658 Descending Boston Center
Thu 09:00:00 PM 41.9333 -72.6833 223° Southwest  Level FlightAware Approximate
Thu 09:07:00 PM 41.9392 -72.6834 223° Southwest  Level Estimated
Thu 09:08:00 PM 41.9333 -72.6833 223° Southwest  Level FlightAware Approximate

Login

Don't have an account? Register now (free) for customized features, flight alerts, and more!